This is the latest recevied weather packets stored in our database for station/object GM0VGI-13. If no packets are shown the sender has not sent any weather packets the latest 10 day(s).
| Time | Temp. | Humidity | Pressure | Rain* | Wind** | Luminosity | Snow |
|---|---|---|---|---|---|---|---|
| 1777637523 | 21.67° C | 46% | 1015.8 hPa | 0 mm | - | - | - |
| 1777637403 | 21.67° C | 46% | 1015.8 hPa | 0 mm | - | - | - |
| 1777637283 | 22.22° C | 46% | 1015.8 hPa | 0 mm | - | - | - |
| 1777637163 | 22.22° C | 48% | 1015.8 hPa | 0 mm | - | - | - |
| 1777637043 | 21.67° C | 48% | 1015.9 hPa | 0 mm | - | - | - |
| 1777636923 | 21.67° C | 48% | 1015.9 hPa | 0 mm | - | - | - |
| 1777636803 | 21.67° C | 49% | 1015.9 hPa | 0 mm | - | - | - |
| 1777636683 | 21.67° C | 47% | 1015.9 hPa | 0 mm | - | - | - |
| 1777636564 | 21.67° C | 50% | 1015.9 hPa | 0 mm | - | - | - |
| 1777636444 | 21.67° C | 48% | 1015.9 hPa | 0 mm | - | - | - |
| 1777636323 | 21.67° C | 48% | 1016 hPa | 0 mm | - | - | - |
| 1777636204 | 21.11° C | 51% | 1016 hPa | 0 mm | - | - | - |
| 1777636083 | 21.11° C | 51% | 1016.2 hPa | 0 mm | - | - | - |
| 1777635964 | 21.11° C | 50% | 1016.1 hPa | 0 mm | - | - | - |
| 1777635843 | 21.11° C | 51% | 1016.2 hPa | 0 mm | - | - | - |
| 1777635724 | 21.11° C | 49% | 1016.2 hPa | 0 mm | - | - | - |
| 1777635604 | 21.11° C | 52% | 1016.2 hPa | 0 mm | - | - | - |
| 1777635483 | 21.11° C | 53% | 1016.2 hPa | 0 mm | - | - | - |
| 1777635364 | 21.11° C | 52% | 1016.2 hPa | 0 mm | - | - | - |
| 1777635243 | 21.11° C | 52% | 1016.2 hPa | 0 mm | - | - | - |
| 1777635123 | 21.11° C | 50% | 1016.2 hPa | 0 mm | - | - | - |
| 1777635005 | 21.11° C | 52% | 1016.2 hPa | 0 mm | - | - | - |
| 1777634883 | 21.11° C | 53% | 1016.3 hPa | 0 mm | - | - | - |
| 1777634764 | 21.11° C | 51% | 1016.3 hPa | 0 mm | - | - | - |
| 1777634645 | 21.11° C | 53% | 1016.2 hPa | 0 mm | - | - | - |
* Rain latest hour (hover to see other rain measurements)
** Current wind speed in m/s (hover to see current wind gust speed)